{"data":{"norad_id":65347,"intl_designator":"2025-189AA","name":"STARLINK-34881","alt_names":[],"object_type":"PAYLOAD","status":"ACTIVE","operator":null,"country":"US","launch_date":"2025-08-27","launch_site_code":"AFETR","launch_vehicle":null,"mission":null,"orbit_class":"UNKNOWN","rcs_meters":null,"size_class":null,"mass_kg":null,"dimensions":null,"purposes":["comms"],"wikipedia_slug":null,"has_3d_model":false,"image_url":null,"decayed_at":null,"tle_current":{"epoch":"2026-09-20T15:05:09.136608Z","epoch_age_seconds":106418,"freshness":"FRESH","line1":"1 65347U 25189AA  26263.62857797  .00007685  00000+0  25919-3 0  9994","line2":"2 65347  53.1599  19.7938 0000814  94.3040 265.8054 15.31694599 60973","mean_motion":15.31694599,"eccentricity":8.14e-5,"inclination_deg":53.1599,"raan_deg":19.7938,"arg_perigee_deg":94.304,"mean_anomaly_deg":265.8054,"bstar":0.00025919,"rev_number":6097,"period_min":94.013519466618,"perigee_km":470.19859547495,"apogee_km":471.31359527088,"semimajor_km":6848.8930953729,"source":"CELESTRAK","updated_at":"2026-09-21T09:00:35.573962Z"}}}